N66M KSAN-KDAG

Flight info

Callsign N66M
Flight time 0h 26m
Altitude 22000
Route BRDR7 JLI BULGY
Aircraft E55P/L-VGDW/C

Departure

Time 2026-04-26 22:43
Airport San Diego International Airport (KSAN)

Arrival

Time 2026-04-26 23:09
Airport Barstow Daggett Airport (KDAG)
Time Latitude Longitude Altitude Speed Heading
2026-04-26 22:13 32.73376 -117.17982 22 ft 0 kts 160°
2026-04-26 22:37 32.73368 -117.17975 22 ft 3 kts 136°
2026-04-26 22:38 32.73336 -117.17959 22 ft 6 kts 193°
2026-04-26 22:38 32.73286 -117.17979 22 ft 8 kts 198°
2026-04-26 22:38 32.73232 -117.17962 22 ft 9 kts 120°
2026-04-26 22:38 32.73208 -117.17883 22 ft 10 kts 106°
2026-04-26 22:39 32.73187 -117.17796 22 ft 11 kts 106°
2026-04-26 22:39 32.73166 -117.17709 22 ft 11 kts 106°
2026-04-26 22:39 32.73145 -117.17621 22 ft 9 kts 107°
2026-04-26 22:39 32.73118 -117.17574 22 ft 5 kts 139°
2026-04-26 22:40 32.73098 -117.17557 22 ft 2 kts 147°
2026-04-26 22:41 32.73096 -117.17556 22 ft 1 kts 147°
2026-04-26 22:41 32.73073 -117.17538 22 ft 6 kts 147°
2026-04-26 22:41 32.73032 -117.17540 22 ft 6 kts 225°
2026-04-26 22:41 32.73022 -117.17587 22 ft 6 kts 277°
2026-04-26 22:42 32.73035 -117.17645 22 ft 10 kts 285°
2026-04-26 22:42 32.73076 -117.17813 22 ft 48 kts 287°
2026-04-26 22:42 32.73237 -117.18474 22 ft 115 kts 286°
2026-04-26 22:42 32.73476 -117.19480 424 ft 133 kts 286°
2026-04-26 22:43 32.73768 -117.20665 874 ft 159 kts 289°
2026-04-26 22:43 32.74137 -117.21983 1381 ft 184 kts 289°
2026-04-26 22:43 32.74558 -117.23510 1974 ft 208 kts 289°
2026-04-26 22:43 32.75031 -117.25198 2629 ft 228 kts 289°
2026-04-26 22:44 32.75559 -117.27051 3413 ft 243 kts 289°
2026-04-26 22:44 32.76119 -117.28992 4192 ft 256 kts 289°
2026-04-26 22:44 32.76607 -117.31039 4945 ft 266 kts 275°
2026-04-26 22:44 32.76157 -117.33162 5704 ft 276 kts 239°
2026-04-26 22:45 32.74700 -117.34659 6456 ft 288 kts 206°
2026-04-26 22:45 32.72710 -117.34994 7201 ft 299 kts 174°
2026-04-26 22:45 32.70794 -117.34003 7938 ft 310 kts 142°
2026-04-26 22:45 32.69310 -117.32154 8694 ft 314 kts 134°
2026-04-26 22:46 32.67827 -117.30238 9426 ft 318 kts 134°
2026-04-26 22:46 32.66348 -117.28303 10149 ft 321 kts 134°
2026-04-26 22:46 32.65107 -117.26095 10851 ft 327 kts 110°
2026-04-26 22:46 32.64610 -117.23467 11606 ft 335 kts 102°
2026-04-26 22:47 32.64204 -117.20715 12336 ft 346 kts 97°
2026-04-26 22:47 32.64435 -117.17874 13047 ft 355 kts 69°
2026-04-26 22:47 32.65757 -117.15440 13788 ft 356 kts 41°
2026-04-26 22:47 32.67652 -117.13532 14522 ft 359 kts 29°
2026-04-26 22:48 32.69923 -117.12533 15244 ft 353 kts
2026-04-26 22:48 32.72374 -117.11985 15990 ft 361 kts
2026-04-26 22:48 32.74851 -117.11380 16713 ft 366 kts
2026-04-26 22:48 32.77340 -117.10752 17420 ft 370 kts
2026-04-26 22:49 32.79864 -117.10120 18124 ft 376 kts
2026-04-26 22:49 32.82431 -117.09476 18830 ft 380 kts
2026-04-26 22:49 32.85042 -117.08822 19493 ft 388 kts
2026-04-26 22:49 32.87712 -117.08151 20102 ft 397 kts
2026-04-26 22:50 32.90415 -117.07472 20709 ft 404 kts
2026-04-26 22:50 32.93211 -117.06769 21326 ft 411 kts
2026-04-26 22:50 32.96001 -117.06067 21887 ft 419 kts
2026-04-26 22:50 32.98935 -117.05331 22027 ft 435 kts
2026-04-26 22:51 33.01901 -117.04581 22046 ft 438 kts
2026-04-26 22:51 33.04906 -117.03822 22108 ft 440 kts
2026-04-26 22:51 33.07901 -117.03068 22125 ft 445 kts
2026-04-26 22:51 33.10938 -117.02301 22081 ft 447 kts
2026-04-26 22:52 33.16022 -117.01016 22065 ft 448 kts
2026-04-26 22:52 33.22171 -116.99461 22060 ft 448 kts
2026-04-26 22:52 33.28186 -116.97938 22057 ft 448 kts
2026-04-26 22:52 33.34356 -116.96372 22055 ft 448 kts
2026-04-26 22:53 33.40437 -116.94827 22056 ft 448 kts
2026-04-26 22:53 33.46543 -116.93272 22061 ft 448 kts
2026-04-26 22:53 33.52622 -116.91723 22066 ft 448 kts
2026-04-26 22:53 33.58761 -116.90155 22079 ft 447 kts
2026-04-26 22:54 33.64894 -116.88587 22093 ft 447 kts
2026-04-26 22:54 33.71031 -116.87016 22128 ft 448 kts
2026-04-26 22:54 33.77131 -116.85452 22087 ft 449 kts
2026-04-26 22:54 33.83254 -116.83881 22020 ft 451 kts
2026-04-26 22:55 33.89438 -116.82290 21955 ft 451 kts
2026-04-26 22:55 33.95556 -116.80714 21897 ft 452 kts
2026-04-26 22:55 34.03659 -116.78625 21838 ft 453 kts
2026-04-26 22:55 34.06743 -116.77830 21754 ft 456 kts
2026-04-26 22:56 34.09869 -116.77023 21665 ft 454 kts
2026-04-26 22:56 34.12917 -116.76233 21575 ft 449 kts
2026-04-26 22:56 34.15966 -116.75443 21497 ft 443 kts
2026-04-26 22:56 34.18979 -116.74661 21149 ft 440 kts
2026-04-26 22:57 34.21982 -116.73880 20696 ft 435 kts
2026-04-26 22:57 34.24931 -116.73115 20224 ft 430 kts
2026-04-26 22:57 34.27839 -116.72359 19690 ft 422 kts
2026-04-26 22:57 34.30670 -116.71622 19172 ft 413 kts
2026-04-26 22:58 34.33411 -116.70908 18601 ft 402 kts
2026-04-26 22:58 34.36136 -116.70200 18011 ft 392 kts
2026-04-26 22:58 34.38740 -116.69522 17433 ft 382 kts
2026-04-26 22:58 34.41307 -116.68853 16810 ft 369 kts
2026-04-26 22:59 34.43760 -116.68213 16071 ft 348 kts
2026-04-26 22:59 34.46037 -116.67619 15368 ft 321 kts
2026-04-26 22:59 34.48121 -116.67076 14697 ft 301 kts
2026-04-26 22:59 34.50120 -116.66557 14035 ft 286 kts
2026-04-26 23:00 34.52039 -116.66056 13375 ft 275 kts
2026-04-26 23:00 34.53877 -116.65574 12733 ft 266 kts
2026-04-26 23:00 34.55657 -116.65113 12175 ft 260 kts
2026-04-26 23:00 34.57437 -116.64642 11728 ft 262 kts
2026-04-26 23:01 34.59224 -116.64178 11269 ft 264 kts
2026-04-26 23:01 34.61008 -116.63691 10807 ft 265 kts
2026-04-26 23:01 34.62820 -116.63194 10334 ft 265 kts
2026-04-26 23:01 34.64581 -116.62698 9768 ft 253 kts
2026-04-26 23:02 34.66253 -116.62234 9242 ft 241 kts
2026-04-26 23:02 34.67854 -116.61799 8726 ft 232 kts
2026-04-26 23:02 34.69406 -116.61390 8215 ft 225 kts
2026-04-26 23:02 34.70913 -116.61006 7719 ft 220 kts
2026-04-26 23:03 34.72399 -116.60637 7227 ft 217 kts
2026-04-26 23:03 34.73864 -116.60282 6736 ft 214 kts
2026-04-26 23:03 34.75333 -116.59939 6290 ft 218 kts
2026-04-26 23:03 34.76852 -116.59598 5816 ft 225 kts
2026-04-26 23:04 34.78419 -116.59243 5339 ft 232 kts
2026-04-26 23:04 34.80001 -116.58878 5088 ft 226 kts
2026-04-26 23:04 34.81484 -116.58549 5035 ft 208 kts 355°
2026-04-26 23:04 34.82704 -116.59125 5065 ft 176 kts 308°
2026-04-26 23:05 34.83286 -116.60330 4835 ft 174 kts 294°
2026-04-26 23:05 34.83808 -116.61690 4479 ft 177 kts 292°
2026-04-26 23:05 34.84274 -116.63072 4114 ft 182 kts 286°
2026-04-26 23:05 34.84647 -116.64510 3746 ft 173 kts 283°
2026-04-26 23:06 34.84920 -116.65906 3346 ft 166 kts 278°
2026-04-26 23:06 34.85084 -116.67265 3003 ft 158 kts 273°
2026-04-26 23:06 34.85165 -116.68549 2775 ft 145 kts 272°
2026-04-26 23:06 34.85218 -116.69719 2571 ft 135 kts 270°
2026-04-26 23:07 34.85188 -116.70795 2462 ft 125 kts 267°
2026-04-26 23:07 34.85133 -116.71860 2358 ft 131 kts 269°
2026-04-26 23:07 34.85139 -116.73025 2438 ft 140 kts 272°
2026-04-26 23:07 34.85152 -116.74254 2484 ft 148 kts 272°
2026-04-26 23:08 34.85140 -116.75413 2371 ft 131 kts 270°
2026-04-26 23:08 34.85136 -116.76450 2185 ft 113 kts 272°
2026-04-26 23:08 34.85141 -116.77358 2013 ft 101 kts 272°
2026-04-26 23:08 34.85143 -116.78133 1964 ft 82 kts 271°
2026-04-26 23:09 34.85146 -116.78751 1970 ft 64 kts 269°
2026-04-26 23:09 34.85142 -116.79190 1974 ft 31 kts 272°
2026-04-26 23:09 34.85185 -116.79342 1977 ft 14 kts 314°
2026-04-26 23:09 34.85265 -116.79368 1976 ft 14 kts 43°
2026-04-26 23:10 34.85358 -116.79238 1974 ft 25 kts 51°
2026-04-26 23:10 34.85459 -116.79095 1972 ft 16 kts 26°
2026-04-26 23:10 34.85546 -116.79088 1972 ft 13 kts 36°
2026-04-26 23:10 34.85618 -116.79012 1971 ft 13 kts 29°
2026-04-26 23:11 34.85652 -116.79037 1971 ft 3 kts 233°
2026-04-26 23:11 34.85649 -116.79041 1971 ft 0 kts 229°